Location: Unspecified
(0.0000°N, 0.0000°E)
Time: 11:20:46
(UTC+00:00)

SRMSAT - Pass Details

Date: 21 July 2019
Orbit: 848 x 865 km, 20.0° (Epoch: 07 December)

Event Time Altitude Azimuth Distance (km) Brightness Sun altitude
Rises 19:24:37 0° 279° (W) 3,428 ? -18.3°
Reaches altitude 10° 19:27:45 10° 294° (WNW) 2,490 ? -19.0°
Maximum altitude 19:32:18 22° 344° (NNW) 1,775 ? -20.1°
Drops below altitude 10° 19:36:52 10° 33° (NNE) 2,485 ? -21.1°
Enters shadow 19:38:39 - 43° (NE) 2,995 ? -21.5°
